[[{"header":{"parameterUnit":"m.s-1","parameterCategory":2,"la1":30.2991,"la2":30.254,"lo1":-89.0895,"lo2":-89.0444,"dy":0.0017,"dx":0.0017,"nx":28,"ny":28,"refTime":"2024-07-31T09:00:00:Z","depth":"0","parameterNumber":2,"parameterNumberName":"U-component_of_CURRENTS"},"data":[0,0,0,0,0,0,0,0,0,0,0,0,0,0,0,0,0,0,0,0,0,0,0,0,0,0,0,0,0,0,0,0,0,0,0,0,0,0,0,0,0,0,0,0,0,0,0,0,0,0,0,0,0,0,0,0,0,0,-0.2323,-0.2323,0,-0.235,-0.235,-0.2351,-0.2264,-0.2261,-0.2259,-0.2257,-0.217,-0.217,-0.217,0,0,0,0,0,0,0,0,0,0,0,0,0,-0.2254,-0.2255,-0.2323,-0.2323,-0.2324,-0.235,-0.235,-0.2351,-0.2264,-0.2261,-0.2259,-0.2256,-0.217,-0.217,-0.217,0,0,0,0,0,0,0,0,0,0,0,0,0,-0.228,-0.2255,-0.2323,-0.2286,-0.2283,-0.235,-0.235,-0.2351,-0.2265,-0.2261,-0.2258,-0.2254,-0.217,-0.217,-0.217,-0.2241,0,0,-0.217,-0.217,0,0,0,0,0,0,0,0,-0.2278,-0.2282,-0.2291,-0.2289,-0.2286,-0.2302,-0.2294,-0.2309,-0.2266,-0.2269,-0.2257,-0.2253,-0.2208,-0.2205,-0.2216,-0.2237,-0.2233,-0.217,-0.217,-0.2169,-0.2169,0,0,0,0,0,0,0,-0.2277,-0.2281,-0.2331,-0.2292,-0.2289,-0.2289,-0.2287,-0.2297,-0.2254,-0.2268,-0.2263,-0.2272,-0.2205,-0.2216,-0.2213,-0.2232,-0.217,-0.217,-0.2169,-0.2169,-0.2254,-0.2256,0,0,0,0,0,0,-0.228,-0.2279,-0.233,-0.2332,-0.2276,-0.2293,-0.2291,-0.2298,-0.2256,-0.2248,-0.2275,-0.2268,-0.2218,-0.2213,-0.2209,-0.2252,-0.2169,-0.2169,-0.2169,-0.2252,-0.2254,-0.2257,0,0,0,0,0,0,-0.2279,-0.2285,-0.2329,-0.2308,-0.2314,-0.2297,-0.2306,-0.2301,-0.2292,-0.2263,-0.2251,-0.2269,-0.2215,-0.2209,-0.2216,-0.2249,-0.2169,-0.2169,-0.2249,-0.2252,-0.2256,-0.2363,0,0,0,0,0,0,-0.2277,-0.2284,-0.2284,-0.2309,-0.2315,-0.2364,-0.231,-0.2304,-0.2306,-0.2296,-0.2255,-0.2244,-0.2212,-0.2217,-0.2216,-0.2247,-0.2169,-0.2246,-0.225,-0.2254,-0.2356,-0.2369,-0.2381,0,0,0,0,0,-0.2274,-0.2292,-0.2283,-0.2289,-0.2318,-0.2366,-0.237,-0.2344,-0.2309,-0.2319,-0.2294,-0.2245,-0.2243,-0.222,-0.2218,-0.225,-0.2244,-0.2249,-0.2254,-0.2351,-0.2367,-0.238,0,0,0,0,0,0,-0.226,-0.2287,-0.2277,-0.23,-0.2329,-0.2352,-0.2358,-0.2351,-0.2344,-0.2321,-0.2281,-0.2272,-0.2288,-0.2265,-0.2239,-0.2288,-0.2234,-0.2239,-0.2308,-0.2323,-0.2335,-0.2278,-0.2169,0,0,0,0,0,-0.2263,-0.2276,-0.231,-0.2326,-0.2341,-0.2352,-0.2364,-0.2356,-0.236,-0.2351,-0.2332,-0.2314,-0.2319,-0.2313,-0.2309,-0.2347,-0.2269,-0.2365,-0.2377,-0.2387,-0.2342,-0.2254,-0.2252,-0.2274,-0.2274,-0.2274,0,0,-0.2264,-0.2277,-0.2285,-0.2324,-0.2336,-0.2381,-0.2348,-0.2373,-0.2402,-0.2346,-0.2367,-0.2356,-0.2338,-0.2371,-0.2376,-0.2349,-0.2356,-0.2394,-0.2403,-0.235,-0.2258,-0.2255,-0.2253,-0.2278,-0.2277,-0.2276,0,0,-0.2287,-0.2285,-0.231,-0.2344,-0.2374,-0.2392,-0.2402,-0.2433,-0.2429,-0.2473,-0.2434,-0.2429,-0.2457,-0.2436,-0.2434,-0.2513,-0.2423,-0.2533,-0.2549,-0.2467,-0.2462,-0.2457,-0.2412,-0.2402,-0.254,-0.2541,-0.2541,0,-0.2282,-0.2314,-0.2327,-0.2371,-0.2393,-0.2401,-0.2442,-0.2469,-0.2498,-0.2485,-0.2484,-0.2479,-0.2479,-0.2479,-0.2518,-0.2535,-0.248,-0.2497,-0.2477,-0.247,-0.2462,-0.2417,-0.2404,-0.2546,-0.2546,-0.2545,-0.2545,0,-0.2337,-0.2359,-0.238,-0.2429,-0.2466,-0.2498,-0.2544,-0.2562,-0.2562,-0.2568,-0.2563,-0.2563,-0.2533,-0.2573,-0.2577,-0.2547,-0.2526,-0.2501,-0.2429,-0.2466,-0.2418,-0.2402,-0.2555,-0.2553,-0.2551,-0.2549,0,0,-0.2312,-0.2398,-0.2398,-0.2409,-0.2489,-0.2509,-0.2573,-0.2599,-0.2571,-0.2619,-0.2575,-0.2633,-0.2586,-0.2578,-0.2577,-0.2534,-0.2491,-0.2507,-0.25,-0.2443,-0.2325,-0.2238,-0.2213,-0.2455,-0.2452,-0.2449,-0.2331,0,-0.2333,-0.2395,-0.245,-0.2498,-0.2522,-0.2562,-0.2596,-0.262,-0.2623,-0.259,-0.2585,-0.2554,-0.2606,-0.2574,-0.2547,-0.2491,-0.2445,-0.2525,-0.231,-0.2304,-0.2205,-0.2189,-0.2059,-0.1934,-0.2316,-0.2313,-0.2311,0,-0.235,-0.2381,-0.2432,-0.2468,-0.2479,-0.2514,-0.2504,-0.2542,-0.2527,-0.2518,-0.2496,-0.2479,-0.2458,-0.2467,-0.2379,-0.2428,-0.2373,-0.2334,-0.2328,-0.2175,-0.2184,-0.1948,-0.189,-0.1905,-0.2286,-0.2288,-0.229,0,-0.2263,-0.2351,-0.2367,-0.2395,-0.2461,-0.2462,-0.2482,-0.2489,-0.2482,-0.2443,-0.2415,-0.2381,-0.2344,-0.228,-0.2261,-0.2299,-0.2126,-0.216,-0.2029,-0.2025,-0.1827,-0.1809,-0.1721,-0.2036,-0.2036,-0.2037,-0.2037,0,-0.2231,-0.2235,-0.2313,-0.2315,-0.2292,-0.2372,-0.2328,-0.2343,-0.2337,-0.2293,-0.2346,-0.2284,-0.2286,-0.2223,-0.2197,-0.2063,-0.2072,-0.1991,-0.1961,-0.1872,-0.1861,-0.1792,-0.1841,-0.2032,-0.2033,-0.2034,-0.2035,0,-0.2109,-0.218,-0.2185,-0.2239,-0.2247,-0.2215,-0.2246,-0.2203,-0.2237,-0.2181,-0.2172,-0.2187,-0.2102,-0.21,-0.198,-0.1961,-0.1806,-0.1792,-0.1714,-0.1674,-0.157,-0.163,-0.1476,-0.1436,-0.1619,-0.1615,-0.1612,0,-0.2045,-0.2038,-0.2086,-0.2067,-0.2082,-0.2069,-0.2043,-0.2112,-0.2101,-0.2103,-0.2063,-0.2003,-0.1848,-0.1691,-0.167,-0.1563,-0.164,-0.142,-0.1454,-0.1504,-0.155,-0.1633,-0.1619,-0.1273,-0.1267,-0.1263,-0.1259,0,-0.1887,-0.1906,-0.1902,-0.1872,-0.1852,-0.185,-0.1853,-0.1835,-0.1902,-0.1833,-0.1685,-0.1536,-0.1454,-0.1253,-0.1225,-0.1198,-0.1389,-0.1326,-0.1364,-0.1237,-0.1325,-0.1292,-0.1468,-0.1221,-0.1224,-0.1227,-0.1229,-0.1231,-0.1727,-0.1685,-0.1671,-0.1628,-0.1625,-0.1591,-0.1531,-0.1541,-0.1442,-0.1325,-0.1289,-0.0979,-0.0885,-0.0783,-0.0833,-0.0945,-0.1059,-0.0941,-0.1005,-0.1083,-0.104,-0.1147,-0.0877,-0.0878,-0.088,-0.0881,-0.0883,0,-0.1489,-0.146,-0.1419,-0.1378,-0.131,-0.138,-0.1362,-0.1277,-0.1091,-0.0942,-0.0713,-0.0325,-0.0262,-0.0379,-0.0588,-0.063,-0.0687,-0.0685,-0.0778,-0.0774,-0.0821,-0.0801,-0.0514,-0.0514,-0.0514,-0.0514,-0.0514,-0.0514,-0.135,-0.1221,-0.1215,-0.1044,-0.1035,-0.0904,-0.0856,-0.0751,-0.063,-0.0238,0.0039,0.0226,0.0118,-0.0269,-0.055,-0.0582,-0.0646,-0.0599,-0.07,-0.0761,-0.0792,-0.0821,-0.0813,-0.0533,-0.0533,-0.059,-0.059,-0.0591]},{"header":{"parameterUnit":"m.s-1","parameterCategory":2,"la1":30.2991,"la2":30.254,"lo1":-89.0895,"lo2":-89.0444,"dy":0.0017,"dx":0.0017,"nx":28,"ny":28,"refTime":"2024-07-31T09:00:00:Z","depth":"0","parameterNumber":3,"parameterNumberName":"V-component_of_CURRENTS"},"data":[0,0,0,0,0,0,0,0,0,0,0,0,0,0,0,0,0,0,0,0,0,0,0,0,0,0,0,0,0,0,0,0,0,0,0,0,0,0,0,0,0,0,0,0,0,0,0,0,0,0,0,0,0,0,0,0,0,0,-0.0258,-0.0258,0,-0.0224,-0.0224,-0.0224,-0.016,-0.0158,-0.0157,-0.0156,-0.0132,-0.0132,-0.0133,0,0,0,0,0,0,0,0,0,0,0,0,0,-0.025,-0.025,-0.0258,-0.0258,-0.0257,-0.0224,-0.0224,-0.0223,-0.016,-0.0158,-0.0157,-0.0155,-0.0131,-0.0132,-0.0133,0,0,0,0,0,0,0,0,0,0,0,0,0,-0.0239,-0.025,-0.0258,-0.0221,-0.0217,-0.0224,-0.0224,-0.0223,-0.016,-0.0158,-0.0156,-0.0154,-0.0131,-0.0132,-0.0133,-0.0177,0,0,-0.0135,-0.0136,0,0,0,0,0,0,0,0,-0.024,-0.0239,-0.0227,-0.0224,-0.0219,-0.0194,-0.0212,-0.0208,-0.0161,-0.0182,-0.0156,-0.0153,-0.0154,-0.0153,-0.0152,-0.0176,-0.0175,-0.0135,-0.0136,-0.0136,-0.0137,0,0,0,0,0,0,0,-0.024,-0.024,-0.0245,-0.0227,-0.0222,-0.02,-0.0196,-0.0211,-0.018,-0.018,-0.0175,-0.0172,-0.0152,-0.0151,-0.0151,-0.0174,-0.0135,-0.0136,-0.0137,-0.0137,-0.0181,-0.0181,0,0,0,0,0,0,-0.0247,-0.0242,-0.0246,-0.0244,-0.0224,-0.0202,-0.0198,-0.0204,-0.018,-0.0174,-0.0173,-0.0169,-0.0151,-0.015,-0.015,-0.0145,-0.0136,-0.0137,-0.0138,-0.018,-0.0181,-0.0181,0,0,0,0,0,0,-0.0247,-0.0248,-0.0248,-0.0241,-0.0239,-0.0204,-0.0212,-0.0205,-0.0194,-0.0174,-0.0168,-0.0169,-0.0149,-0.0148,-0.016,-0.0145,-0.0137,-0.0138,-0.0179,-0.018,-0.0181,-0.0171,0,0,0,0,0,0,-0.0247,-0.0249,-0.0258,-0.0242,-0.0239,-0.0267,-0.0213,-0.0205,-0.0195,-0.0189,-0.0169,-0.0165,-0.0147,-0.0159,-0.0161,-0.0146,-0.0139,-0.0178,-0.018,-0.0181,-0.017,-0.0171,-0.0172,0,0,0,0,0,-0.0247,-0.0286,-0.0259,-0.0259,-0.0253,-0.0269,-0.0267,-0.0235,-0.0197,-0.0214,-0.0186,-0.0165,-0.0167,-0.0161,-0.0163,-0.0148,-0.0178,-0.0179,-0.0181,-0.017,-0.0171,-0.0172,0,0,0,0,0,0,-0.0292,-0.0282,-0.0252,-0.0285,-0.0276,-0.0258,-0.0271,-0.0241,-0.0232,-0.0219,-0.0186,-0.0182,-0.0187,-0.0182,-0.0175,-0.0166,-0.0165,-0.0167,-0.0156,-0.0157,-0.0158,-0.0138,-0.014,0,0,0,0,0,-0.0304,-0.0325,-0.0305,-0.0329,-0.0328,-0.0295,-0.0294,-0.0272,-0.026,-0.0252,-0.0234,-0.0214,-0.0199,-0.0188,-0.0194,-0.0197,-0.0169,-0.0187,-0.0188,-0.0188,-0.0176,-0.013,-0.0124,-0.0186,-0.0186,-0.0186,0,0,-0.0328,-0.0323,-0.0334,-0.0339,-0.0326,-0.0347,-0.0291,-0.0301,-0.0295,-0.0255,-0.0253,-0.0232,-0.0207,-0.0203,-0.0202,-0.019,-0.0159,-0.019,-0.0191,-0.0177,-0.013,-0.0124,-0.0118,-0.0187,-0.0187,-0.0187,0,0,-0.0399,-0.038,-0.0423,-0.042,-0.041,-0.0391,-0.0395,-0.0377,-0.0342,-0.0351,-0.0298,-0.0255,-0.0276,-0.0212,-0.019,-0.0203,-0.0178,-0.0221,-0.0191,-0.0147,-0.014,-0.0134,-0.0095,-0.0085,-0.0205,-0.0205,-0.0205,0,-0.0423,-0.0463,-0.0439,-0.0474,-0.0463,-0.0414,-0.044,-0.0417,-0.0399,-0.0348,-0.036,-0.0294,-0.0266,-0.0192,-0.0185,-0.0197,-0.0185,-0.0184,-0.0144,-0.0138,-0.0132,-0.0092,-0.0082,-0.0204,-0.0205,-0.0205,-0.0205,0,-0.0523,-0.0542,-0.0569,-0.0583,-0.0576,-0.0595,-0.0547,-0.0519,-0.0472,-0.0425,-0.0359,-0.0317,-0.0257,-0.0242,-0.0216,-0.0144,-0.0156,-0.0161,-0.0133,-0.0124,-0.0084,-0.0074,-0.0204,-0.0204,-0.0204,-0.0204,0,0,-0.0594,-0.063,-0.0634,-0.0635,-0.0621,-0.0624,-0.0592,-0.0528,-0.0477,-0.0442,-0.0374,-0.0301,-0.0244,-0.0215,-0.0162,-0.0106,-0.004,-0.0116,-0.0114,-0.0062,0.0044,0.0098,0.0115,-0.0051,-0.0049,-0.0048,0.0054,0,-0.0664,-0.0748,-0.073,-0.0768,-0.0792,-0.0704,-0.0674,-0.0597,-0.0528,-0.0465,-0.0345,-0.0302,-0.0245,-0.0216,-0.0142,-0.008,-0.0013,-0.0068,0.0014,0.0017,0.0077,0.013,0.0202,0.0304,0.0064,0.0066,0.0068,0,-0.0757,-0.0789,-0.0853,-0.0819,-0.0814,-0.0822,-0.071,-0.0677,-0.0545,-0.0484,-0.038,-0.032,-0.0194,-0.0189,-0.0024,-0.0074,-0.0006,0.0042,0.0047,0.0106,0.0093,0.0255,0.0333,0.0445,0.0085,0.0083,0.0082,0,-0.0813,-0.0857,-0.0899,-0.09,-0.0874,-0.0839,-0.08,-0.0678,-0.0617,-0.0502,-0.046,-0.0317,-0.0253,-0.0151,-0.001,-0.0032,0.0137,0.0118,0.0241,0.0244,0.0332,0.0341,0.0548,0.0231,0.0231,0.0231,0.0231,0,-0.0886,-0.0912,-0.0934,-0.0956,-0.0958,-0.0902,-0.0855,-0.0782,-0.0678,-0.0594,-0.0483,-0.0379,-0.0248,-0.0123,-0.0018,0.0165,0.0146,0.0271,0.0288,0.0335,0.0343,0.0463,0.0493,0.0235,0.0234,0.0233,0.0232,0,-0.0942,-0.0967,-0.1014,-0.1006,-0.0998,-0.0999,-0.092,-0.0873,-0.077,-0.0667,-0.0637,-0.0434,-0.0243,-0.0109,0.0072,0.017,0.0412,0.0379,0.0427,0.045,0.066,0.0686,0.0889,0.1003,0.053,0.0532,0.0534,0,-0.0974,-0.1017,-0.1064,-0.1089,-0.1091,-0.1073,-0.1041,-0.0938,-0.0876,-0.0656,-0.0607,-0.0405,-0.0165,0.0116,0.027,0.0459,0.054,0.0621,0.0615,0.0717,0.0758,0.0753,0.0834,0.0729,0.0733,0.0735,0.0737,0,-0.101,-0.1043,-0.1081,-0.1153,-0.1161,-0.1149,-0.1096,-0.1051,-0.0883,-0.0742,-0.0464,-0.0249,0.0048,0.035,0.0537,0.0646,0.0737,0.0683,0.0788,0.0949,0.0961,0.1062,0.0601,0.0761,0.0759,0.0757,0.0756,0.0755,-0.1011,-0.1065,-0.1126,-0.1183,-0.1209,-0.1186,-0.112,-0.0997,-0.0831,-0.0529,-0.0351,0.0065,0.044,0.0762,0.0821,0.1006,0.0955,0.109,0.1117,0.1105,0.1221,0.0814,0.0986,0.0985,0.0985,0.0984,0.0983,0,-0.0972,-0.1049,-0.1132,-0.1188,-0.1207,-0.1214,-0.1114,-0.0965,-0.0695,-0.0394,-0.006,0.0558,0.089,0.1125,0.1362,0.1447,0.1451,0.1489,0.1512,0.158,0.1234,0.1249,0.1487,0.1487,0.1487,0.1487,0.1487,0.1487,-0.0947,-0.1019,-0.1086,-0.1137,-0.1175,-0.1083,-0.0998,-0.0754,-0.0491,0.0076,0.05,0.0819,0.1279,0.1578,0.1787,0.1803,0.1939,0.1883,0.1955,0.1707,0.1671,0.1637,0.1661,0.1981,0.1982,0.2319,0.2322,0.2324]}],[{"header":{"parameterUnit":"m.s-1","parameterCategory":2,"la1":30.2991,"la2":30.254,"lo1":-89.0895,"lo2":-89.0444,"dy":0.0017,"dx":0.0017,"nx":28,"ny":28,"refTime":"2024-07-31T09:00:00:Z","depth":"2","parameterNumber":2,"parameterNumberName":"U-component_of_CURRENTS"},"data":[0,0,0,0,0,0,0,0,0,0,0,0,0,0,0,0,0,0,0,0,0,0,0,0,0,0,0,0,0,0,0,0,0,0,0,0,0,0,0,0,0,0,0,0,0,0,0,0,0,0,0,0,0,0,0,0,0,0,-0.2355,-0.2356,0,-0.2412,-0.2412,-0.2412,-0.2521,-0.2523,-0.2526,-0.2528,-0.2794,-0.2799,-0.2804,0,0,0,0,0,0,0,0,0,0,0,0,0,-0.2139,-0.2144,-0.2355,-0.2356,-0.2357,-0.2412,-0.2412,-0.2412,-0.252,-0.2524,-0.2527,-0.2529,-0.2793,-0.2799,-0.2804,0,0,0,0,0,0,0,0,0,0,0,0,0,-0.2215,-0.2145,-0.2355,-0.242,-0.2427,-0.2411,-0.2412,-0.2412,-0.252,-0.2524,-0.2527,-0.2531,-0.2791,-0.2798,-0.2805,-0.2775,0,0,-0.2827,-0.283,0,0,0,0,0,0,0,0,-0.2211,-0.2222,-0.2409,-0.2416,-0.2423,-0.2466,-0.2434,-0.2546,-0.2519,-0.248,-0.2528,-0.2533,-0.2704,-0.2718,-0.2712,-0.2788,-0.2799,-0.2828,-0.2832,-0.2835,-0.2837,0,0,0,0,0,0,0,-0.2206,-0.2219,-0.2373,-0.241,-0.2419,-0.2378,-0.2395,-0.2453,-0.2572,-0.2484,-0.2493,-0.2504,-0.2709,-0.2705,-0.272,-0.2803,-0.2827,-0.2834,-0.2838,-0.2841,-0.3023,-0.3023,0,0,0,0,0,0,-0.2214,-0.2216,-0.2372,-0.2376,-0.2328,-0.238,-0.2398,-0.2446,-0.2567,-0.2588,-0.2501,-0.2509,-0.2691,-0.2712,-0.273,-0.2822,-0.2835,-0.2842,-0.2846,-0.3022,-0.3023,-0.3023,0,0,0,0,0,0,-0.2209,-0.2228,-0.2369,-0.2297,-0.2313,-0.2382,-0.2433,-0.2445,-0.2469,-0.2578,-0.2604,-0.2517,-0.2695,-0.272,-0.2833,-0.283,-0.2845,-0.2851,-0.3022,-0.3022,-0.3023,-0.293,0,0,0,0,0,0,-0.2203,-0.2227,-0.2237,-0.2299,-0.2318,-0.2396,-0.243,-0.2443,-0.247,-0.2482,-0.2599,-0.2626,-0.2699,-0.2822,-0.284,-0.284,-0.2857,-0.3021,-0.3022,-0.3023,-0.2932,-0.2927,-0.2923,0,0,0,0,0,-0.2196,-0.223,-0.2238,-0.2255,-0.234,-0.2397,-0.2403,-0.2458,-0.2467,-0.2488,-0.2578,-0.2624,-0.2841,-0.2828,-0.285,-0.2851,-0.3021,-0.3022,-0.3023,-0.2934,-0.2928,-0.2923,0,0,0,0,0,0,-0.2171,-0.2245,-0.2256,-0.2318,-0.2359,-0.2418,-0.2445,-0.2452,-0.2523,-0.2552,-0.2637,-0.2671,-0.2771,-0.2821,-0.2804,-0.2908,-0.2934,-0.294,-0.286,-0.2855,-0.285,-0.2811,-0.2863,0,0,0,0,0,-0.2157,-0.2176,-0.2257,-0.229,-0.2336,-0.2375,-0.2392,-0.2429,-0.2504,-0.2537,-0.2656,-0.2742,-0.2779,-0.2829,-0.2916,-0.2962,-0.2938,-0.2976,-0.2971,-0.2967,-0.2951,-0.2872,-0.2856,-0.3027,-0.3027,-0.3027,0,0,-0.215,-0.2187,-0.2201,-0.2277,-0.2326,-0.2378,-0.2399,-0.2455,-0.2475,-0.2557,-0.2687,-0.2753,-0.2794,-0.2868,-0.2912,-0.2915,-0.2912,-0.2969,-0.2964,-0.295,-0.2871,-0.2854,-0.2838,-0.3028,-0.3028,-0.3028,0,0,-0.2145,-0.2203,-0.2224,-0.2272,-0.234,-0.2374,-0.2391,-0.2504,-0.2546,-0.2627,-0.2686,-0.2734,-0.287,-0.2876,-0.2876,-0.2885,-0.29,-0.2942,-0.2874,-0.2797,-0.278,-0.2765,-0.2723,-0.2705,-0.2924,-0.2924,-0.2924,0,-0.2125,-0.217,-0.2235,-0.2284,-0.2306,-0.2378,-0.2409,-0.2456,-0.2589,-0.2599,-0.2682,-0.2773,-0.284,-0.2789,-0.2821,-0.2865,-0.2853,-0.2882,-0.2783,-0.2768,-0.2754,-0.2714,-0.2695,-0.292,-0.292,-0.2921,-0.2921,0,-0.214,-0.2181,-0.2219,-0.2286,-0.2323,-0.2368,-0.2453,-0.2523,-0.2578,-0.2604,-0.2644,-0.2719,-0.2748,-0.2775,-0.2806,-0.274,-0.2775,-0.2789,-0.2779,-0.273,-0.2694,-0.2675,-0.2914,-0.2915,-0.2916,-0.2918,0,0,-0.2073,-0.2193,-0.22,-0.2226,-0.232,-0.2359,-0.2408,-0.2437,-0.2449,-0.2554,-0.2536,-0.258,-0.2617,-0.262,-0.2658,-0.2608,-0.2517,-0.2674,-0.2672,-0.2601,-0.238,-0.2308,-0.2283,-0.2521,-0.2517,-0.2514,-0.2395,0,-0.2048,-0.2106,-0.2162,-0.221,-0.2264,-0.233,-0.2366,-0.2399,-0.2449,-0.25,-0.2467,-0.2506,-0.2549,-0.2572,-0.2514,-0.255,-0.2467,-0.255,-0.2466,-0.2464,-0.2378,-0.2257,-0.2118,-0.1992,-0.2378,-0.2375,-0.2372,0,-0.2032,-0.2064,-0.2097,-0.2172,-0.2204,-0.2231,-0.2267,-0.2311,-0.2346,-0.2387,-0.2363,-0.2408,-0.2355,-0.2412,-0.232,-0.2387,-0.2366,-0.2366,-0.236,-0.2307,-0.2356,-0.2106,-0.1945,-0.2342,-0.2345,-0.2347,-0.2349,0,-0.1931,-0.2018,-0.2017,-0.205,-0.2155,-0.2156,-0.22,-0.2255,-0.2287,-0.231,-0.2334,-0.2282,-0.2281,-0.2222,-0.2237,-0.2286,-0.2144,-0.2193,-0.2075,-0.2072,-0.194,-0.193,-0.2057,-0.2057,-0.2057,-0.2058,-0.2058,0,-0.1875,-0.189,-0.1976,-0.199,-0.2001,-0.2091,-0.2106,-0.2159,-0.2208,-0.2218,-0.2265,-0.225,-0.2241,-0.2188,-0.2179,-0.2061,-0.2064,-0.2019,-0.2006,-0.191,-0.1899,-0.2206,-0.2225,-0.2053,-0.2054,-0.2055,-0.2056,0,-0.1789,-0.1843,-0.1869,-0.1943,-0.1966,-0.1977,-0.2069,-0.2083,-0.2154,-0.2163,-0.2166,-0.2203,-0.2129,-0.2094,-0.2013,-0.1974,-0.1885,-0.1831,-0.174,-0.1715,-0.1887,-0.1904,-0.1675,-0.1671,-0.1667,-0.1664,-0.1662,0,-0.175,-0.1751,-0.1818,-0.1826,-0.1858,-0.1899,-0.1924,-0.2029,-0.2045,-0.2121,-0.2097,-0.2065,-0.2037,-0.1893,-0.1764,-0.164,-0.1742,-0.1467,-0.1498,-0.1822,-0.1833,-0.1855,-0.1876,-0.1303,-0.1298,-0.1294,-0.129,0,-0.1668,-0.1688,-0.1706,-0.1723,-0.1742,-0.1779,-0.1821,-0.1836,-0.1936,-0.1963,-0.1985,-0.1986,-0.1851,-0.1663,-0.1495,-0.1413,-0.1482,-0.1375,-0.167,-0.1432,-0.1463,-0.1479,-0.1512,-0.1252,-0.1256,-0.1259,-0.1261,-0.1262,-0.1592,-0.1583,-0.1598,-0.1606,-0.1628,-0.1629,-0.1611,-0.1656,-0.1678,-0.1676,-0.1802,-0.1736,-0.1697,-0.1351,-0.1227,-0.1072,-0.1187,-0.1152,-0.1167,-0.1187,-0.1176,-0.1199,-0.0938,-0.094,-0.0942,-0.0943,-0.0945,0,-0.1489,-0.1487,-0.1483,-0.1478,-0.144,-0.1502,-0.1511,-0.1458,-0.1419,-0.1459,-0.1488,-0.1324,-0.1195,-0.1112,-0.0814,-0.0766,-0.0783,-0.0734,-0.0777,-0.0814,-0.0846,-0.0822,-0.0488,-0.0487,-0.0486,-0.0485,0,0,-0.1434,-0.1392,-0.1389,-0.1288,-0.1275,-0.1179,-0.1156,-0.1108,-0.1101,-0.1031,-0.0994,-0.1143,-0.1128,-0.0845,-0.0754,-0.0579,-0.0703,-0.0533,-0.0896,-0.0987,-0.102,-0.1072,-0.1072,0,0,0,0,0]},{"header":{"parameterUnit":"m.s-1","parameterCategory":2,"la1":30.2991,"la2":30.254,"lo1":-89.0895,"lo2":-89.0444,"dy":0.0017,"dx":0.0017,"nx":28,"ny":28,"refTime":"2024-07-31T09:00:00:Z","depth":"2","parameterNumber":3,"parameterNumberName":"V-component_of_CURRENTS"},"data":[0,0,0,0,0,0,0,0,0,0,0,0,0,0,0,0,0,0,0,0,0,0,0,0,0,0,0,0,0,0,0,0,0,0,0,0,0,0,0,0,0,0,0,0,0,0,0,0,0,0,0,0,0,0,0,0,0,0,-0.0336,-0.0335,0,-0.0271,-0.0271,-0.027,-0.0186,-0.0184,-0.0183,-0.0181,0.0135,0.0142,0.0149,0,0,0,0,0,0,0,0,0,0,0,0,0,-0.042,-0.0419,-0.0336,-0.0335,-0.0334,-0.0271,-0.0271,-0.027,-0.0186,-0.0184,-0.0182,-0.018,0.0133,0.0141,0.0149,0,0,0,0,0,0,0,0,0,0,0,0,0,-0.0375,-0.0418,-0.0336,-0.0282,-0.0277,-0.0271,-0.0271,-0.027,-0.0187,-0.0184,-0.0182,-0.0179,0.013,0.014,0.0151,0.0165,0,0,0.0182,0.0187,0,0,0,0,0,0,0,0,-0.0377,-0.0372,-0.0291,-0.0286,-0.028,-0.0231,-0.0184,-0.0111,-0.0187,-0.0224,-0.0181,-0.0178,0.0036,0.0054,0.0053,0.018,0.0193,0.0183,0.0189,0.0194,0.0197,0,0,0,0,0,0,0,-0.0381,-0.0375,-0.0313,-0.029,-0.0283,-0.0272,-0.0263,-0.0171,-0.0106,-0.0221,-0.0214,-0.0202,0.0041,0.0043,0.0062,0.0198,0.0183,0.0192,0.0198,0.0202,0.0533,0.0535,0,0,0,0,0,0,-0.0384,-0.0378,-0.0315,-0.0311,-0.032,-0.0272,-0.0262,-0.0252,-0.0112,-0.009,-0.0205,-0.0199,0.0024,0.005,0.0074,0.0172,0.0194,0.0203,0.0209,0.053,0.0533,0.0536,0,0,0,0,0,0,-0.0386,-0.0379,-0.0318,-0.034,-0.0331,-0.0273,-0.0262,-0.0252,-0.024,-0.0103,-0.0075,-0.0202,0.0027,0.0059,0.0187,0.0183,0.0208,0.0217,0.0527,0.0531,0.0535,0.0324,0,0,0,0,0,0,-0.0389,-0.038,-0.0386,-0.0341,-0.033,-0.0316,-0.0264,-0.0252,-0.0236,-0.0228,-0.0091,-0.006,0.0031,0.0171,0.0198,0.0198,0.0225,0.0524,0.0529,0.0534,0.0327,0.032,0.0313,0,0,0,0,0,-0.0392,-0.0401,-0.0387,-0.038,-0.0336,-0.0317,-0.0312,-0.0263,-0.0238,-0.0243,-0.0125,-0.0064,0.0222,0.018,0.0211,0.0214,0.0522,0.0528,0.0533,0.033,0.0321,0.0313,0,0,0,0,0,0,-0.0433,-0.0393,-0.0375,-0.037,-0.0348,-0.0301,-0.0296,-0.0275,-0.0199,-0.0167,-0.0047,-0.0008,0.0102,0.0206,0.0157,0.0337,0.0388,0.04,0.0224,0.0217,0.021,0.0194,0.0234,0,0,0,0,0,-0.045,-0.0448,-0.0407,-0.0405,-0.0391,-0.0351,-0.0341,-0.0307,-0.0232,-0.02,-0.0092,0.0043,0.0144,0.0216,0.0331,0.0417,0.047,0.0455,0.0447,0.044,0.0457,0.0482,0.0474,0.0555,0.0555,0.0555,0,0,-0.0462,-0.0442,-0.044,-0.0416,-0.0388,-0.0373,-0.0338,-0.0315,-0.0293,-0.0169,-0.0081,0.0016,0.0165,0.0262,0.0323,0.0349,0.045,0.0447,0.0438,0.046,0.0486,0.0477,0.0469,0.0559,0.0558,0.0558,0,0,-0.049,-0.0469,-0.0477,-0.0458,-0.0422,-0.0394,-0.0391,-0.0332,-0.0294,-0.0212,-0.0115,-0.0027,0.0154,0.0233,0.0299,0.0331,0.0403,0.0391,0.034,0.0361,0.0352,0.0345,0.0387,0.0385,0.0393,0.0392,0.0392,0,-0.0508,-0.0507,-0.0478,-0.0474,-0.0457,-0.0405,-0.0402,-0.0365,-0.0267,-0.0233,-0.0183,0.0026,0.0133,0.0217,0.0241,0.0304,0.0346,0.0332,0.0339,0.0334,0.033,0.0376,0.0376,0.0383,0.0384,0.0385,0.0386,0,-0.0533,-0.053,-0.0527,-0.0503,-0.0489,-0.0474,-0.0416,-0.0381,-0.0323,-0.0275,-0.0176,-0.0051,0.0072,0.0112,0.0192,0.0229,0.0276,0.0301,0.0325,0.0307,0.036,0.0363,0.0369,0.0373,0.0376,0.0378,0,0,-0.0573,-0.0553,-0.0551,-0.0548,-0.05,-0.049,-0.0451,-0.041,-0.0381,-0.0289,-0.0249,-0.0109,-0.0056,0.0028,0.0111,0.0144,0.0135,0.0216,0.0221,0.0197,0.02,0.0242,0.0251,0.0143,0.0143,0.0144,0.0238,0,-0.0599,-0.0613,-0.0589,-0.0587,-0.0582,-0.0529,-0.0502,-0.0453,-0.0386,-0.0322,-0.0235,-0.0147,-0.0086,-0.0034,-0.0003,0.0124,0.0143,0.011,0.028,0.0286,0.0272,0.0256,0.0239,0.0324,0.0243,0.0243,0.0244,0,-0.0628,-0.0633,-0.0648,-0.063,-0.0621,-0.0612,-0.0565,-0.0533,-0.0446,-0.039,-0.032,-0.0228,-0.0145,-0.01,0.0035,0.0013,0.0097,0.0172,0.0176,0.0299,0.0336,0.0344,0.0335,0.0252,0.0251,0.0251,0.025,0,-0.0676,-0.0672,-0.0691,-0.0682,-0.0651,-0.0647,-0.0627,-0.0557,-0.0527,-0.0435,-0.039,-0.0291,-0.0214,-0.0125,0.0044,0.0041,0.0193,0.0199,0.0305,0.0309,0.0378,0.0388,0.0264,0.0264,0.0264,0.0263,0.0263,0,-0.0711,-0.0722,-0.0718,-0.0723,-0.074,-0.0698,-0.0696,-0.0651,-0.0586,-0.0543,-0.0435,-0.0363,-0.0215,-0.0097,0.0023,0.0189,0.0166,0.0304,0.0333,0.031,0.0313,0.033,0.0336,0.0267,0.0266,0.0265,0.0265,0,-0.0751,-0.0751,-0.0772,-0.0763,-0.0765,-0.0776,-0.0758,-0.0746,-0.0672,-0.0612,-0.0583,-0.0414,-0.0242,-0.0094,0.0092,0.0178,0.032,0.0376,0.0354,0.0379,0.0426,0.0422,0.0497,0.0499,0.0501,0.0502,0.0503,0,-0.0772,-0.0789,-0.0812,-0.0834,-0.0833,-0.0846,-0.0854,-0.0802,-0.0777,-0.0628,-0.0594,-0.0409,-0.0244,0.0039,0.0216,0.0409,0.0393,0.0488,0.0471,0.0428,0.0448,0.0441,0.0434,0.0481,0.0482,0.0483,0.0483,0,-0.0802,-0.0815,-0.0835,-0.0885,-0.0911,-0.0936,-0.0931,-0.0924,-0.0836,-0.0762,-0.0584,-0.0433,-0.0124,0.0122,0.0356,0.0455,0.0454,0.0513,0.047,0.0422,0.042,0.0438,0.043,0.0491,0.049,0.049,0.0489,0.0489,-0.0823,-0.0852,-0.0886,-0.0928,-0.0965,-0.0992,-0.1002,-0.096,-0.0909,-0.0728,-0.0594,-0.0326,-0.0114,0.0266,0.0423,0.0569,0.0564,0.0584,0.0579,0.0573,0.0552,0.0552,0.0646,0.0646,0.0646,0.0646,0.0646,0,-0.0844,-0.0876,-0.0922,-0.0974,-0.1014,-0.1025,-0.1026,-0.0995,-0.0911,-0.0676,-0.0482,-0.0242,0.0036,0.0271,0.0529,0.0656,0.0621,0.0656,0.0589,0.0582,0.0576,0.0551,0.0647,0.0648,0.0648,0.0648,0,0,-0.0859,-0.0905,-0.0929,-0.0995,-0.103,-0.1058,-0.1054,-0.0982,-0.0819,-0.0579,-0.0358,-0.0134,0.0124,0.0272,0.0425,0.0579,0.0547,0.0577,0.0565,0.0465,0.0457,0.0526,0.048,0,0,0,0,0]}],[{"header":{"parameterUnit":"m.s-1","parameterCategory":2,"la1":30.2991,"la2":30.254,"lo1":-89.0895,"lo2":-89.0444,"dy":0.0017,"dx":0.0017,"nx":28,"ny":28,"refTime":"2024-07-31T09:00:00:Z","depth":"4","parameterNumber":2,"parameterNumberName":"U-component_of_CURRENTS"},"data":[0,0,0,0,0,0,0,0,0,0,0,0,0,0,0,0,0,0,0,0,0,0,0,0,0,0,0,0,0,0,0,0,0,0,0,0,0,0,0,0,0,0,0,0,0,0,0,0,0,0,0,0,0,0,0,0,0,0,-0.1383,-0.1384,0,-0.1443,-0.1444,-0.1444,-0.1465,-0.1465,-0.1465,-0.1464,-0.15,-0.1502,-0.1503,0,0,0,0,0,0,0,0,0,0,0,0,0,-0.1325,-0.1326,-0.1383,-0.1384,-0.1385,-0.1443,-0.1444,-0.1445,-0.1465,-0.1465,-0.1465,-0.1464,-0.15,-0.1501,-0.1503,0,0,0,0,0,0,0,0,0,0,0,0,0,-0.1365,-0.1326,-0.1383,-0.1401,-0.1404,-0.1443,-0.1444,-0.1445,-0.1465,-0.1465,-0.1464,-0.1464,-0.1499,-0.1501,-0.1503,-0.1523,0,0,-0.1509,-0.1509,0,0,0,0,0,0,0,0,-0.1363,-0.1367,-0.1398,-0.14,-0.1403,-0.1446,-0.1437,-0.147,-0.1465,-0.1443,-0.1464,-0.1464,-0.148,-0.1483,-0.1497,-0.1525,-0.1526,-0.1509,-0.151,-0.1511,-0.1511,0,0,0,0,0,0,0,-0.136,-0.1365,-0.1407,-0.1399,-0.1402,-0.142,-0.1425,-0.1443,-0.1463,-0.1444,-0.1446,-0.1452,-0.1481,-0.1495,-0.1497,-0.1527,-0.1509,-0.151,-0.1512,-0.1512,-0.1607,-0.1608,0,0,0,0,0,0,-0.135,-0.1362,-0.1406,-0.1409,-0.1381,-0.1421,-0.1427,-0.1433,-0.1463,-0.1467,-0.1452,-0.1453,-0.1492,-0.1495,-0.1499,-0.1555,-0.1511,-0.1512,-0.1513,-0.1606,-0.1607,-0.1609,0,0,0,0,0,0,-0.1348,-0.1353,-0.1403,-0.1386,-0.1394,-0.1422,-0.1429,-0.1434,-0.1466,-0.1469,-0.1473,-0.148,-0.1492,-0.1496,-0.154,-0.1555,-0.1513,-0.1515,-0.1604,-0.1606,-0.1608,-0.1647,0,0,0,0,0,0,-0.1346,-0.1352,-0.1371,-0.1386,-0.1394,-0.1433,-0.143,-0.1436,-0.1469,-0.147,-0.1495,-0.1496,-0.1492,-0.1538,-0.1542,-0.1557,-0.1516,-0.1602,-0.1605,-0.1607,-0.1644,-0.165,-0.1655,0,0,0,0,0,-0.1344,-0.1363,-0.1372,-0.1378,-0.1414,-0.1433,-0.144,-0.1459,-0.1471,-0.1486,-0.1514,-0.1497,-0.1557,-0.1541,-0.1546,-0.1561,-0.1601,-0.1604,-0.1607,-0.1641,-0.1649,-0.1655,0,0,0,0,0,0,-0.1342,-0.1368,-0.1377,-0.1402,-0.1421,-0.1437,-0.146,-0.1474,-0.151,-0.1522,-0.1524,-0.1529,-0.1567,-0.1567,-0.155,-0.1597,-0.1573,-0.1577,-0.1597,-0.1604,-0.161,-0.1589,-0.1518,0,0,0,0,0,-0.1352,-0.1378,-0.1394,-0.1417,-0.1428,-0.1451,-0.1469,-0.1483,-0.1508,-0.1525,-0.1539,-0.156,-0.1582,-0.1597,-0.1611,-0.1648,-0.1631,-0.1658,-0.1664,-0.1669,-0.1657,-0.1681,-0.1687,-0.1619,-0.1619,-0.1619,0,0,-0.1361,-0.1376,-0.1394,-0.142,-0.1438,-0.146,-0.1462,-0.1495,-0.1515,-0.1523,-0.1564,-0.1583,-0.1597,-0.1631,-0.1648,-0.1636,-0.1676,-0.1673,-0.1677,-0.1662,-0.1684,-0.1691,-0.1696,-0.1621,-0.1621,-0.1621,0,0,-0.1377,-0.1401,-0.1426,-0.1443,-0.1474,-0.1486,-0.15,-0.1528,-0.1545,-0.1592,-0.1597,-0.1624,-0.1668,-0.1667,-0.1676,-0.1725,-0.1705,-0.174,-0.1755,-0.1779,-0.1784,-0.1789,-0.1755,-0.1756,-0.1745,-0.1745,-0.1745,0,-0.139,-0.1414,-0.1436,-0.1457,-0.1476,-0.1498,-0.1524,-0.1544,-0.1584,-0.1607,-0.161,-0.1677,-0.1675,-0.1713,-0.1721,-0.1733,-0.1737,-0.1727,-0.1785,-0.179,-0.1793,-0.1757,-0.1758,-0.1747,-0.1747,-0.1746,-0.1746,0,-0.1411,-0.1441,-0.1455,-0.1489,-0.1515,-0.154,-0.1564,-0.1598,-0.1628,-0.1648,-0.1702,-0.1712,-0.175,-0.1752,-0.175,-0.1782,-0.177,-0.1788,-0.1763,-0.1802,-0.1762,-0.1762,-0.175,-0.1749,-0.1749,-0.1748,0,0,-0.1401,-0.1462,-0.1467,-0.1495,-0.1536,-0.1559,-0.1599,-0.1641,-0.1684,-0.1714,-0.1761,-0.1779,-0.1795,-0.1805,-0.1808,-0.1814,-0.1822,-0.1817,-0.1817,-0.1772,-0.1849,-0.1708,-0.1693,-0.1873,-0.1874,-0.1875,-0.1801,0,-0.141,-0.1456,-0.1487,-0.1538,-0.1561,-0.1603,-0.1644,-0.1691,-0.1731,-0.178,-0.179,-0.1835,-0.1814,-0.1844,-0.1849,-0.1837,-0.1829,-0.1837,-0.1826,-0.1823,-0.1686,-0.1692,-0.1878,-0.1801,-0.1801,-0.1801,-0.1801,0,-0.1405,-0.144,-0.149,-0.157,-0.1589,-0.1629,-0.171,-0.1752,-0.1816,-0.1852,-0.1895,-0.1911,-0.1913,-0.1901,-0.1884,-0.1903,-0.1873,-0.1851,-0.1849,-0.17,-0.1682,-0.1761,-0.1801,-0.1801,-0.1801,-0.1801,-0.1801,0,-0.1363,-0.144,-0.1484,-0.1506,-0.1595,-0.1642,-0.1698,-0.1777,-0.1818,-0.1895,-0.193,-0.1962,-0.1963,-0.1958,-0.1889,-0.1912,-0.1853,-0.1883,-0.1717,-0.1705,-0.1838,-0.1835,-0.1869,-0.1869,-0.1869,-0.1869,-0.1869,0,-0.1334,-0.1374,-0.1476,-0.1493,-0.1568,-0.164,-0.1722,-0.1787,-0.1867,-0.1894,-0.1962,-0.1963,-0.1985,-0.1949,-0.1906,-0.178,-0.1867,-0.1696,-0.168,-0.1853,-0.1852,-0.1836,-0.1833,-0.1866,-0.1867,-0.1867,-0.1868,0,-0.1269,-0.1334,-0.1392,-0.1502,-0.1544,-0.1597,-0.172,-0.1764,-0.1861,-0.1893,-0.1913,-0.196,-0.1902,-0.1879,-0.1835,-0.1766,-0.1687,-0.1624,-0.1758,-0.1755,-0.152,-0.1521,-0.1444,-0.1438,-0.1433,-0.1429,-0.1426,0,-0.1237,-0.1258,-0.138,-0.1414,-0.1467,-0.156,-0.161,-0.1737,-0.1763,-0.1853,-0.1835,-0.1833,-0.1829,-0.1641,-0.165,-0.1547,-0.1529,-0.1488,-0.154,-0.1486,-0.1479,-0.1487,-0.1494,-0.1419,-0.1417,-0.1416,-0.1415,0,-0.1169,-0.1222,-0.1268,-0.1339,-0.14,-0.1464,-0.154,-0.155,-0.1656,-0.1759,-0.1707,-0.1668,-0.1588,-0.1532,-0.1448,-0.1388,-0.1525,-0.1439,-0.145,-0.1499,-0.1455,-0.1454,-0.1467,-0.1399,-0.1401,-0.1402,-0.1403,0,-0.1118,-0.1135,-0.1196,-0.1248,-0.1316,-0.1327,-0.1394,-0.1409,-0.1458,-0.1556,-0.1521,-0.1518,-0.1558,-0.1443,-0.137,-0.1291,-0.1283,-0.1264,-0.1284,-0.1302,-0.1288,-0.1214,-0.105,0,0,0,0,0,-0.1059,-0.1062,-0.1098,-0.1137,-0.1192,-0.1226,-0.1319,-0.1379,-0.1475,-0.1393,-0.1459,-0.1377,-0.1286,-0.1294,-0.1176,-0.1288,-0.1278,-0.1147,-0.1266,-0.1308,-0.1327,-0.1322,0,0,0,0,0,0,-0.1017,-0.1049,-0.1059,-0.1023,-0.1017,-0.106,-0.1108,-0.1177,-0.1149,-0.1251,-0.1202,-0.1286,-0.1207,-0.1306,-0.1139,-0.1137,-0.1183,-0.1157,-0.1154,-0.1298,-0.1315,-0.133,-0.1332,0,0,0,0,0]},{"header":{"parameterUnit":"m.s-1","parameterCategory":2,"la1":30.2991,"la2":30.254,"lo1":-89.0895,"lo2":-89.0444,"dy":0.0017,"dx":0.0017,"nx":28,"ny":28,"refTime":"2024-07-31T09:00:00:Z","depth":"4","parameterNumber":3,"parameterNumberName":"V-component_of_CURRENTS"},"data":[0,0,0,0,0,0,0,0,0,0,0,0,0,0,0,0,0,0,0,0,0,0,0,0,0,0,0,0,0,0,0,0,0,0,0,0,0,0,0,0,0,0,0,0,0,0,0,0,0,0,0,0,0,0,0,0,0,0,-0.0327,-0.0326,0,-0.0307,-0.0306,-0.0306,-0.0295,-0.0294,-0.0294,-0.0294,-0.0247,-0.0245,-0.0244,0,0,0,0,0,0,0,0,0,0,0,0,0,-0.0334,-0.0334,-0.0327,-0.0326,-0.0326,-0.0307,-0.0306,-0.0306,-0.0295,-0.0294,-0.0294,-0.0294,-0.0247,-0.0246,-0.0244,0,0,0,0,0,0,0,0,0,0,0,0,0,-0.0324,-0.0334,-0.0327,-0.0318,-0.0317,-0.0307,-0.0306,-0.0306,-0.0295,-0.0294,-0.0294,-0.0294,-0.0247,-0.0246,-0.0244,-0.0235,0,0,-0.0238,-0.0238,0,0,0,0,0,0,0,0,-0.0325,-0.0324,-0.0319,-0.0318,-0.0317,-0.0303,-0.0291,-0.0281,-0.0295,-0.0303,-0.0294,-0.0294,-0.0263,-0.026,-0.0257,-0.0233,-0.0231,-0.0238,-0.0237,-0.0236,-0.0236,0,0,0,0,0,0,0,-0.0326,-0.0325,-0.0319,-0.0319,-0.0318,-0.0307,-0.0306,-0.0289,-0.0284,-0.0302,-0.0302,-0.0299,-0.0262,-0.0259,-0.0256,-0.023,-0.0238,-0.0237,-0.0236,-0.0235,-0.021,-0.0211,0,0,0,0,0,0,-0.0329,-0.0326,-0.032,-0.0318,-0.032,-0.0308,-0.0306,-0.0308,-0.0284,-0.0281,-0.0299,-0.0298,-0.0262,-0.0258,-0.0254,-0.0249,-0.0236,-0.0235,-0.0234,-0.021,-0.021,-0.0211,0,0,0,0,0,0,-0.0329,-0.0329,-0.032,-0.0321,-0.0319,-0.0308,-0.0309,-0.0307,-0.0308,-0.0282,-0.0278,-0.0302,-0.0262,-0.0256,-0.0243,-0.0247,-0.0234,-0.0232,-0.0209,-0.021,-0.0211,-0.0235,0,0,0,0,0,0,-0.0329,-0.0329,-0.0335,-0.0321,-0.0319,-0.0326,-0.0309,-0.0307,-0.0306,-0.0306,-0.0283,-0.0279,-0.0261,-0.0245,-0.0241,-0.0244,-0.0231,-0.0209,-0.021,-0.021,-0.0233,-0.0236,-0.0238,0,0,0,0,0,-0.033,-0.0339,-0.0335,-0.0335,-0.0327,-0.0327,-0.0325,-0.0316,-0.0307,-0.0315,-0.0294,-0.028,-0.0247,-0.0244,-0.0239,-0.0241,-0.0209,-0.021,-0.021,-0.0232,-0.0235,-0.0238,0,0,0,0,0,0,-0.0344,-0.0338,-0.0334,-0.034,-0.0339,-0.0325,-0.033,-0.0321,-0.0311,-0.0307,-0.028,-0.0275,-0.0268,-0.0252,-0.0249,-0.0238,-0.0227,-0.0227,-0.0246,-0.0249,-0.0251,-0.0239,-0.0229,0,0,0,0,0,-0.035,-0.0358,-0.0348,-0.0356,-0.0355,-0.0343,-0.0342,-0.0335,-0.0322,-0.0318,-0.0301,-0.0282,-0.0267,-0.0256,-0.0245,-0.0233,-0.019,-0.0233,-0.0236,-0.0238,-0.0226,-0.0148,-0.0142,-0.0214,-0.0214,-0.0214,0,0,-0.0358,-0.0356,-0.036,-0.036,-0.0356,-0.0361,-0.0343,-0.0345,-0.0344,-0.0313,-0.0309,-0.0292,-0.0268,-0.0259,-0.0254,-0.0245,-0.0201,-0.0239,-0.0241,-0.0227,-0.0148,-0.0141,-0.0134,-0.0215,-0.0215,-0.0215,0,0,-0.0379,-0.0376,-0.0389,-0.0389,-0.0386,-0.0379,-0.0381,-0.037,-0.0362,-0.0356,-0.0333,-0.0311,-0.0298,-0.0271,-0.0257,-0.0265,-0.0221,-0.0274,-0.0268,-0.0194,-0.0186,-0.0179,-0.0137,-0.0126,-0.0269,-0.0269,-0.0269,0,-0.039,-0.0402,-0.0394,-0.0404,-0.0403,-0.0389,-0.0398,-0.0389,-0.0375,-0.0357,-0.0361,-0.0312,-0.0299,-0.0261,-0.027,-0.0268,-0.0228,-0.0258,-0.0194,-0.0186,-0.0178,-0.0136,-0.0123,-0.027,-0.027,-0.027,-0.027,0,-0.0417,-0.0426,-0.0433,-0.0441,-0.044,-0.0447,-0.0432,-0.0427,-0.0415,-0.0392,-0.036,-0.0331,-0.0293,-0.0296,-0.0287,-0.0232,-0.0224,-0.0209,-0.0181,-0.0171,-0.0129,-0.0115,-0.0272,-0.0271,-0.0271,-0.0271,0,0,-0.0442,-0.0451,-0.0455,-0.0462,-0.0458,-0.0462,-0.0457,-0.0439,-0.0419,-0.0398,-0.0359,-0.0337,-0.0303,-0.0284,-0.0262,-0.0204,-0.0133,-0.0187,-0.0183,-0.0138,0.0016,-0.001,0.0003,-0.0099,-0.0097,-0.0094,0.0016,0,-0.0467,-0.0495,-0.0488,-0.0508,-0.0519,-0.0498,-0.0492,-0.0469,-0.0438,-0.0397,-0.0343,-0.0307,-0.0303,-0.0281,-0.022,-0.0156,-0.0094,-0.0166,-0.0006,-0.0002,-0.0018,0.002,-0.0086,0.0027,0.003,0.0032,0.0034,0,-0.0495,-0.0509,-0.0538,-0.0536,-0.0537,-0.0546,-0.052,-0.051,-0.0442,-0.041,-0.0346,-0.0298,-0.0223,-0.0216,-0.0076,-0.012,-0.0051,0.0001,0.0007,0.0007,-0.0001,0.002,0.006,0.0058,0.0056,0.0054,0.0052,0,-0.0522,-0.0541,-0.0567,-0.0569,-0.0567,-0.0569,-0.0566,-0.0516,-0.0498,-0.0411,-0.0375,-0.027,-0.022,-0.011,-0.0019,-0.0034,0.0141,0.0139,0.0185,0.0182,0.0183,0.0174,0.0263,0.0263,0.0263,0.0263,0.0262,0,-0.0546,-0.0566,-0.0586,-0.0599,-0.0621,-0.0602,-0.0601,-0.0572,-0.0514,-0.0478,-0.0384,-0.0325,-0.0187,-0.0079,0.0008,0.0133,0.017,0.0201,0.0223,0.0164,0.0152,0.0191,0.0182,0.0267,0.0266,0.0265,0.0265,0,-0.0567,-0.0583,-0.0615,-0.0629,-0.0639,-0.0655,-0.0654,-0.064,-0.0579,-0.0523,-0.0496,-0.0354,-0.0209,-0.0077,0.0103,0.0157,0.0281,0.0319,0.0233,0.0245,0.0265,0.0252,0.039,0.0391,0.0391,0.0391,0.0391,0,-0.0577,-0.0599,-0.0647,-0.0676,-0.0689,-0.0712,-0.0725,-0.0686,-0.0661,-0.0542,-0.0509,-0.0355,-0.0253,-0.0017,0.0118,0.0301,0.0316,0.0369,0.0332,0.0277,0.0285,0.0272,0.0259,0.0392,0.0392,0.0392,0.0392,0,-0.0591,-0.0618,-0.0646,-0.071,-0.0746,-0.0774,-0.0781,-0.0765,-0.0698,-0.0648,-0.0507,-0.0365,-0.0194,-0.0016,0.0127,0.0253,0.0329,0.0373,0.0373,0.0338,0.0281,0.0285,0.0272,0.0393,0.0393,0.0393,0.0393,0,-0.0603,-0.0634,-0.0682,-0.0731,-0.0784,-0.0808,-0.0811,-0.0767,-0.0735,-0.0599,-0.0556,-0.0357,-0.024,-0.0039,0.0093,0.0215,0.0239,0.0254,0.0261,0.0261,0.0181,0.0087,0.0176,0,0,0,0,0,-0.0608,-0.0644,-0.0695,-0.0751,-0.0803,-0.0827,-0.083,-0.0816,-0.0754,-0.0667,-0.0607,-0.0446,-0.0211,-0.0096,0.0024,0.0086,0.0248,0.0226,0.0264,0.0398,0.0397,0.0322,0,0,0,0,0,0,-0.0616,-0.0668,-0.0693,-0.0753,-0.079,-0.0838,-0.0839,-0.08,-0.0739,-0.0659,-0.053,-0.0444,-0.0215,-0.0283,0.0018,0.006,0.0093,0.0345,0.0347,0.0399,0.0398,0.0397,0.032,0,0,0,0,0]}]]